TimeCDT,TemperatureF,Dew PointF,Humidity,Sea Level PressureIn,VisibilityMPH,Wind Direction,Wind SpeedMPH,Gust SpeedMPH,PrecipitationIn,Events,Conditions,WindDirDegrees,DateUTC
12:53 AM,44.1,34.0,68,29.60,10.0,SE,5.8,-,N/A,,Clear,140,2014-03-11 05:53:00
1:53 AM,46.0,34.0,63,29.57,10.0,SE,5.8,-,N/A,,Clear,140,2014-03-11 06:53:00
2:53 AM,48.9,32.0,52,29.55,10.0,South,6.9,-,N/A,,Clear,180,2014-03-11 07:53:00
3:53 AM,43.0,32.0,65,29.53,10.0,Calm,Calm,-,N/A,,Clear,0,2014-03-11 08:53:00
4:53 AM,48.0,30.0,50,29.50,10.0,South,9.2,-,N/A,,Clear,190,2014-03-11 09:53:00
5:53 AM,46.9,30.0,52,29.48,10.0,South,5.8,-,N/A,,Clear,180,2014-03-11 10:53:00
6:53 AM,48.9,30.9,50,29.47,10.0,South,6.9,-,N/A,,Clear,170,2014-03-11 11:53:00
7:53 AM,46.9,33.1,59,29.47,10.0,South,8.1,-,N/A,,Clear,170,2014-03-11 12:53:00
8:53 AM,45.0,33.1,63,29.48,10.0,ESE,5.8,-,N/A,,Clear,110,2014-03-11 13:53:00
9:53 AM,48.9,35.1,59,29.50,10.0,NW,4.6,-,N/A,,Clear,320,2014-03-11 14:53:00
10:53 AM,52.0,37.0,57,29.51,10.0,North,4.6,-,N/A,,Clear,10,2014-03-11 15:53:00
11:53 AM,55.9,37.9,51,29.52,10.0,North,5.8,-,N/A,,Clear,360,2014-03-11 16:53:00
12:53 PM,62.1,39.0,43,29.53,10.0,Calm,Calm,-,N/A,,Clear,0,2014-03-11 17:53:00
1:53 PM,53.1,39.0,59,29.55,10.0,North,19.6,28.8,N/A,,Clear,10,2014-03-11 18:53:00
2:53 PM,52.0,36.0,54,29.57,10.0,NNE,24.2,33.4,N/A,,Clear,20,2014-03-11 19:53:00
3:53 PM,50.0,36.0,59,29.62,10.0,NNE,25.3,35.7,N/A,,Clear,20,2014-03-11 20:53:00
4:45 PM,48.0,35.1,61,29.64,10.0,NNE,31.1,40.3,N/A,,Mostly Cloudy,30,2014-03-11 21:45:00
4:53 PM,46.9,35.1,63,29.66,10.0,NNE,28.8,40.3,N/A,,Mostly Cloudy,30,2014-03-11 21:53:00
5:16 PM,46.0,35.1,66,29.67,10.0,NNE,25.3,40.3,N/A,,Overcast,20,2014-03-11 22:16:00
5:53 PM,45.0,34.0,65,29.71,10.0,NNE,28.8,41.4,N/A,,Overcast,20,2014-03-11 22:53:00
6:31 PM,43.0,34.0,71,29.75,10.0,NNE,25.3,38.0,0.00,Rain-Thunderstorm,Light Rain,20,2014-03-11 23:31:00
6:53 PM,42.1,35.1,76,29.80,10.0,North,18.4,31.1,0.00,Rain,Light Rain,10,2014-03-11 23:53:00
7:53 PM,39.0,34.0,82,29.86,6.0,NNE,27.6,36.8,0.04,Rain,Rain,20,2014-03-12 00:53:00
8:50 PM,37.4,35.6,93,29.89,10.0,North,23.0,33.4,0.02,Snow,Light Snow,10,2014-03-12 01:50:00
8:53 PM,37.0,35.1,93,29.91,9.0,North,24.2,34.5,0.03,Rain,Light Rain,10,2014-03-12 01:53:00
9:53 PM,37.9,30.9,76,29.97,10.0,North,17.3,25.3,0.00,,Overcast,360,2014-03-12 02:53:00
10:53 PM,36.0,30.9,82,30.01,10.0,NNW,10.4,20.7,N/A,,Overcast,340,2014-03-12 03:53:00
11:53 PM,37.0,30.9,79,30.03,10.0,NNW,11.5,-,N/A,,Overcast,330,2014-03-12 04:53:00